| time (UTC) | temp C | wind direction | speed KPH | gust KPH | rain 1hr cm | rain 24hr cm | rain mn cm | humidity % | barometer mb |
| 20260831112215 | 16 | 344 | 8.0 | 12.9 | 0.00 | 0.03 | 0.00 | 71 | 1021.7 |
| 20260831111215 | 15 | 344 | 4.8 | 6.4 | 0.00 | 0.03 | 0.00 | 72 | 1021.6 |
| 20260831110215 | 15 | 344 | 1.6 | 4.8 | 0.00 | 0.03 | 0.00 | 72 | 1021.3 |
| 20260831105215 | 15 | 0.0 | 0.0 | 0.00 | 0.03 | 0.00 | 71 | 1021.3 | |
| 20260831104215 | 15 | 344 | 3.2 | 6.4 | 0.00 | 0.03 | 0.00 | 71 | 1021.1 |
| 20260831103215 | 16 | 344 | 3.2 | 4.8 | 0.00 | 0.03 | 0.00 | 69 | 1020.7 |
| 20260831102215 | 16 | 344 | 0.0 | 1.6 | 0.00 | 0.03 | 0.00 | 70 | 1020.7 |
| 20260831101215 | 15 | 344 | 0.0 | 3.2 | 0.00 | 0.03 | 0.00 | 72 | 1020.6 |
| 20260831100215 | 16 | 344 | 0.0 | 1.6 | 0.00 | 0.03 | 0.00 | 71 | 1020.8 |
| 20260831095215 | 16 | 0.0 | 1.6 | 0.00 | 0.03 | 0.00 | 71 | 1020.7 | |
| 20260831094215 | 15 | 344 | 3.2 | 6.4 | 0.00 | 0.03 | 0.00 | 73 | 1020.5 |
| 20260831093216 | 16 | 344 | 3.2 | 4.8 | 0.00 | 0.03 | 0.00 | 72 | 1021.0 |
| 20260831092215 | 16 | 344 | 1.6 | 3.2 | 0.00 | 0.03 | 0.00 | 73 | 1020.9 |
| 20260831091235 | 16 | 344 | 0.0 | 3.2 | 0.00 | 0.03 | 0.00 | 72 | 1020.9 |
| 20260831090235 | 16 | 0.0 | 0.0 | 0.00 | 0.05 | 0.00 | 72 | 1020.5 | |
| 20260831085215 | 16 | 344 | 3.2 | 3.2 | 0.00 | 0.05 | 0.00 | 71 | 1020.5 |
| 20260831084215 | 16 | 344 | 3.2 | 4.8 | 0.00 | 0.05 | 0.00 | 70 | 1020.9 |
| 20260831083215 | 17 | 344 | 0.0 | 1.6 | 0.00 | 0.05 | 0.00 | 69 | 1021.0 |
| 20260831082215 | 17 | 344 | 0.0 | 3.2 | 0.00 | 0.05 | 0.00 | 66 | 1021.0 |
| 20260831081215 | 17 | 344 | 6.4 | 9.7 | 0.00 | 0.05 | 0.00 | 67 | 1021.0 |
| 20260831080215 | 17 | 344 | 6.4 | 8.0 | 0.00 | 0.05 | 0.00 | 69 | 1021.2 |
| 20260831075215 | 17 | 344 | 6.4 | 9.7 | 0.00 | 0.05 | 0.00 | 70 | 1021.2 |
| 20260831074215 | 17 | 20 | 4.8 | 6.4 | 0.00 | 0.05 | 0.00 | 66 | 1021.2 |
| 20260831073215 | 18 | 0.0 | 1.6 | 0.00 | 0.05 | 0.00 | 67 | 1021.4 | |
| 20260831072215 | 17 | 317 | 11.3 | 16.1 | 0.00 | 0.05 | 0.00 | 69 | 1021.1 |
| 20260831071217 | 16 | 355 | 6.4 | 8.0 | 0.00 | 0.05 | 0.00 | 73 | 1021.1 |
| 20260831070237 | 16 | 355 | 3.2 | 4.8 | 0.00 | 0.08 | 0.00 | 72 | 1021.0 |
| 20260831065217 | 17 | 355 | 3.2 | 4.8 | 0.00 | 0.08 | 0.00 | 72 | 1021.1 |
| 20260831064217 | 17 | 355 | 6.4 | 8.0 | 0.00 | 0.08 | 0.00 | 71 | 1020.9 |
| 20260831063217 | 17 | 355 | 1.6 | 3.2 | 0.00 | 0.08 | 0.00 | 69 | 1020.8 |
| 20260831062217 | 17 | 355 | 3.2 | 4.8 | 0.00 | 0.08 | 0.00 | 67 | 1020.9 |
| 20260831061217 | 18 | 355 | 4.8 | 8.0 | 0.00 | 0.08 | 0.00 | 67 | 1021.1 |
| 20260831060217 | 17 | 355 | 4.8 | 6.4 | 0.00 | 0.08 | 0.00 | 69 | 1020.7 |
| 20260831055216 | 17 | 355 | 4.8 | 8.0 | 0.00 | 0.08 | 0.08 | 70 | 1020.9 |
| 20260831054256 | 17 | 355 | 6.4 | 6.4 | 0.00 | 0.08 | 0.08 | 69 | 1021.0 |
| 20260831053216 | 17 | 355 | 4.8 | 4.8 | 0.00 | 0.08 | 0.08 | 67 | 1020.8 |
| 20260831052216 | 18 | 355 | 3.2 | 4.8 | 0.00 | 0.08 | 0.08 | 68 | 1020.8 |
| 20260831051216 | 18 | 355 | 3.2 | 6.4 | 0.00 | 0.08 | 0.08 | 67 | 1020.9 |
| 20260831050215 | 18 | 348 | 1.6 | 4.8 | 0.00 | 0.10 | 0.08 | 67 | 1020.6 |
| 20260831045216 | 18 | 348 | 3.2 | 3.2 | 0.00 | 0.15 | 0.08 | 64 | 1020.8 |
| 20260831044236 | 18 | 348 | 1.6 | 3.2 | 0.00 | 0.18 | 0.08 | 64 | 1020.4 |
| 20260831043215 | 18 | 348 | 1.6 | 3.2 | 0.00 | 0.23 | 0.08 | 63 | 1020.3 |
| 20260831042215 | 18 | 348 | 3.2 | 3.2 | 0.00 | 0.25 | 0.08 | 62 | 1020.1 |
| 20260831041215 | 18 | 348 | 1.6 | 3.2 | 0.00 | 0.25 | 0.08 | 63 | 1020.1 |
| 20260831040216 | 18 | 348 | 3.2 | 4.8 | 0.00 | 0.25 | 0.08 | 61 | 1019.9 |
| 20260831035216 | 18 | 348 | 3.2 | 4.8 | 0.00 | 0.25 | 0.08 | 61 | 1019.9 |
| 20260831034216 | 18 | 348 | 3.2 | 4.8 | 0.00 | 0.25 | 0.08 | 62 | 1019.7 |
| 20260831033215 | 18 | 49 | 3.2 | 4.8 | 0.00 | 0.28 | 0.08 | 63 | 1019.8 |
| 20260831032216 | 18 | 49 | 1.6 | 3.2 | 0.00 | 0.33 | 0.08 | 64 | 1019.9 |
| 20260831031215 | 19 | 49 | 3.2 | 4.8 | 0.00 | 0.33 | 0.08 | 63 | 1020.3 |
| 20260831030215 | 19 | 49 | 3.2 | 4.8 | 0.00 | 0.33 | 0.08 | 63 | 1019.6 |
| 20260831025216 | 20 | 49 | 1.6 | 1.6 | 0.00 | 0.33 | 0.08 | 62 | 1019.9 |
| 20260831024215 | 20 | 49 | 3.2 | 6.4 | 0.00 | 0.33 | 0.08 | 61 | 1019.7 |
| 20260831023235 | 20 | 31 | 3.2 | 4.8 | 0.00 | 0.33 | 0.08 | 61 | 1019.3 |
| 20260831022336 | 20 | 42 | 6.4 | 8.0 | 0.00 | 0.33 | 0.08 | 64 | 1019.2 |
| 20260831021215 | 20 | 55 | 3.2 | 6.4 | 0.00 | 0.33 | 0.08 | 66 | 1019.3 |
| 20260831020215 | 20 | 15 | 1.6 | 4.8 | 0.00 | 0.33 | 0.08 | 66 | 1019.2 |
| 20260831015215 | 21 | 40 | 8.0 | 11.3 | 0.00 | 0.33 | 0.08 | 63 | 1019.5 |
| 20260831014215 | 21 | 42 | 9.7 | 14.5 | 0.00 | 0.33 | 0.08 | 60 | 1019.4 |
| 20260831013236 | 22 | 58 | 11.3 | 16.1 | 0.00 | 0.33 | 0.08 | 53 | 1019.5 |
| 20260831012215 | 23 | 48 | 17.7 | 22.5 | 0.00 | 0.33 | 0.08 | 51 | 1019.7 |
| 20260831011215 | 23 | 39 | 12.9 | 19.3 | 0.00 | 0.41 | 0.08 | 51 | 1019.8 |
| 20260831010215 | 23 | 41 | 16.1 | 20.9 | 0.00 | 0.64 | 0.08 | 51 | 1019.9 |
| 20260831005215 | 23 | 41 | 16.1 | 22.5 | 0.00 | 0.64 | 0.08 | 50 | 1020.0 |
| 20260831004215 | 24 | 38 | 11.3 | 16.1 | 0.00 | 0.64 | 0.08 | 50 | 1020.2 |
| 20260831003217 | 23 | 14 | 12.9 | 19.3 | 0.00 | 0.64 | 0.08 | 49 | 1020.3 |
| 20260831002215 | 24 | 14 | 14.5 | 17.7 | 0.00 | 0.64 | 0.08 | 47 | 1020.6 |
| 20260831001215 | 25 | 10 | 16.1 | 20.9 | 0.00 | 0.64 | 0.08 | 46 | 1020.8 |
| 20260831000215 | 25 | 342 | 8.0 | 17.7 | 0.00 | 0.64 | 0.08 | 46 | 1020.7 |
| 20260830235215 | 25 | 11 | 8.0 | 20.9 | 0.00 | 0.64 | 0.08 | 49 | 1020.2 |
| 20260830234215 | 24 | 34 | 9.7 | 17.7 | 0.00 | 0.64 | 0.08 | 49 | 1020.2 |
| 20260830233215 | 23 | 44 | 9.7 | 17.7 | 0.00 | 0.64 | 0.08 | 50 | 1020.4 |
| 20260830232215 | 23 | 54 | 16.1 | 20.9 | 0.00 | 0.64 | 0.08 | 50 | 1020.7 |
| 20260830231215 | 23 | 62 | 12.9 | 19.3 | 0.00 | 0.64 | 0.08 | 50 | 1020.7 |
| 20260830230215 | 24 | 72 | 6.4 | 11.3 | 0.00 | 0.64 | 0.08 | 38 | 1020.4 |
| 20260830225215 | 23 | 69 | 9.7 | 12.9 | 0.00 | 0.64 | 0.08 | 34 | 1020.3 |
| 20260830224235 | 23 | 65 | 3.2 | 6.4 | 0.00 | 0.64 | 0.08 | 36 | 1020.2 |
| 20260830223215 | 23 | 84 | 3.2 | 8.0 | 0.00 | 0.64 | 0.08 | 39 | 1019.8 |
| 20260830222215 | 23 | 104 | 4.8 | 9.7 | 0.00 | 0.64 | 0.08 | 44 | 1020.2 |
| 20260830221215 | 22 | 70 | 8.0 | 11.3 | 0.00 | 0.64 | 0.08 | 48 | 1020.1 |
| 20260830220217 | 22 | 86 | 8.0 | 11.3 | 0.00 | 0.64 | 0.08 | 55 | 1019.8 |
| 20260830215215 | 22 | 65 | 8.0 | 12.9 | 0.00 | 0.64 | 0.08 | 57 | 1020.2 |
| 20260830214217 | 23 | 80 | 6.4 | 14.5 | 0.00 | 0.64 | 0.08 | 52 | 1020.2 |
| 20260830213215 | 23 | 115 | 4.8 | 14.5 | 0.00 | 0.64 | 0.08 | 51 | 1020.5 |
| 20260830212237 | 23 | 97 | 8.0 | 16.1 | 0.00 | 0.64 | 0.08 | 55 | 1020.7 |
| 20260830211216 | 23 | 99 | 12.9 | 19.3 | 0.00 | 0.64 | 0.08 | 57 | 1020.9 |
| 20260830210217 | 23 | 112 | 9.7 | 14.5 | 0.00 | 0.64 | 0.08 | 60 | 1021.2 |
| 20260830205216 | 23 | 101 | 11.3 | 17.7 | 0.00 | 0.64 | 0.08 | 62 | 1021.3 |
| 20260830204216 | 23 | 87 | 11.3 | 17.7 | 0.00 | 0.64 | 0.08 | 61 | 1021.1 |
| 20260830203237 | 23 | 79 | 8.0 | 16.1 | 0.00 | 0.64 | 0.08 | 63 | 1021.3 |
| 20260830202217 | 22 | 119 | 9.7 | 20.9 | 0.00 | 0.64 | 0.08 | 64 | 1021.3 |
| 20260830201216 | 23 | 94 | 12.9 | 17.7 | 0.00 | 0.64 | 0.08 | 61 | 1021.4 |
| 20260830200216 | 22 | 91 | 9.7 | 14.5 | 0.00 | 0.64 | 0.08 | 61 | 1021.3 |
| 20260830195216 | 22 | 101 | 9.7 | 14.5 | 0.00 | 0.64 | 0.08 | 62 | 1021.5 |
| 20260830194216 | 22 | 109 | 11.3 | 17.7 | 0.00 | 0.64 | 0.08 | 63 | 1021.5 |
| 20260830193217 | 22 | 112 | 11.3 | 14.5 | 0.00 | 0.64 | 0.08 | 66 | 1021.6 |
| 20260830192217 | 22 | 84 | 14.5 | 16.1 | 0.00 | 0.64 | 0.08 | 65 | 1021.8 |
| 20260830191216 | 22 | 88 | 11.3 | 16.1 | 0.00 | 0.64 | 0.08 | 65 | 1022.1 |
| 20260830190216 | 22 | 104 | 8.0 | 12.9 | 0.00 | 0.64 | 0.08 | 65 | 1022.2 |
| 20260830185216 | 21 | 98 | 11.3 | 16.1 | 0.00 | 0.64 | 0.08 | 65 | 1021.9 |
| 20260830184217 | 22 | 117 | 8.0 | 17.7 | 0.00 | 0.64 | 0.08 | 65 | 1022.1 |
| 20260830183216 | 22 | 91 | 8.0 | 12.9 | 0.00 | 0.64 | 0.08 | 65 | 1022.3 |
| 20260830182217 | 21 | 122 | 9.7 | 14.5 | 0.00 | 0.64 | 0.08 | 65 | 1022.0 |
| 20260830181236 | 21 | 111 | 9.7 | 16.1 | 0.00 | 0.64 | 0.08 | 66 | 1022.1 |
| 20260830180216 | 21 | 152 | 9.7 | 14.5 | 0.00 | 0.64 | 0.08 | 67 | 1022.1 |
| 20260830175236 | 21 | 114 | 11.3 | 12.9 | 0.00 | 0.64 | 0.08 | 68 | 1022.1 |
| 20260830174216 | 21 | 155 | 1.6 | 4.8 | 0.00 | 0.64 | 0.08 | 68 | 1022.1 |
| 20260830173236 | 21 | 154 | 4.8 | 8.0 | 0.00 | 0.64 | 0.08 | 67 | 1022.0 |
| 20260830172216 | 20 | 83 | 1.6 | 6.4 | 0.00 | 0.64 | 0.08 | 69 | 1022.0 |
| 20260830171236 | 20 | 180 | 1.6 | 4.8 | 0.00 | 0.89 | 0.08 | 69 | 1021.8 |
| 20260830170236 | 20 | 157 | 1.6 | 4.8 | 0.00 | 1.32 | 0.08 | 72 | 1021.7 |
| 20260830165216 | 19 | 176 | 0.0 | 1.6 | 0.00 | 1.32 | 0.08 | 75 | 1021.4 |
| 20260830164216 | 18 | 243 | 1.6 | 6.4 | 0.00 | 1.32 | 0.08 | 75 | 1021.4 |
| 20260830163216 | 18 | 190 | 4.8 | 9.7 | 0.00 | 1.32 | 0.08 | 78 | 1021.0 |
| 20260830162216 | 18 | 173 | 3.2 | 9.7 | 0.00 | 1.32 | 0.08 | 78 | 1020.9 |
| 20260830161216 | 18 | 149 | 4.8 | 6.4 | 0.00 | 1.32 | 0.08 | 77 | 1020.9 |
| 20260830160236 | 18 | 292 | 1.6 | 3.2 | 0.00 | 1.32 | 0.08 | 77 | 1020.8 |
| 20260830155216 | 18 | 292 | 1.6 | 1.6 | 0.00 | 1.32 | 0.08 | 78 | 1020.9 |
| 20260830154216 | 18 | 292 | 3.2 | 6.4 | 0.00 | 1.32 | 0.08 | 77 | 1020.7 |
| 20260830153216 | 18 | 156 | 4.8 | 9.7 | 0.00 | 1.32 | 0.08 | 75 | 1021.0 |
| 20260830152216 | 18 | 171 | 1.6 | 6.4 | 0.00 | 1.32 | 0.08 | 76 | 1021.0 |
| 20260830151216 | 18 | 146 | 1.6 | 4.8 | 0.00 | 1.32 | 0.08 | 76 | 1020.9 |
| 20260830150216 | 18 | 130 | 0.0 | 1.6 | 0.00 | 1.32 | 0.08 | 78 | 1021.0 |
| 20260830145216 | 17 | 130 | 3.2 | 3.2 | 0.00 | 1.32 | 0.08 | 82 | 1020.6 |
| 20260830144236 | 17 | 288 | 1.6 | 3.2 | 0.00 | 1.32 | 0.08 | 84 | 1020.6 |
| 20260830143236 | 16 | 0.0 | 1.6 | 0.00 | 1.32 | 0.08 | 84 | 1020.5 | |
| 20260830142216 | 16 | 288 | 1.6 | 4.8 | 0.03 | 1.32 | 0.08 | 83 | 1020.5 |
| 20260830141216 | 16 | 288 | 1.6 | 4.8 | 0.03 | 1.32 | 0.08 | 82 | 1020.1 |
| 20260830140216 | 15 | 295 | 9.7 | 12.9 | 0.03 | 1.32 | 0.08 | 84 | 1019.5 |
| 20260830135216 | 15 | 327 | 8.0 | 12.9 | 0.03 | 1.32 | 0.08 | 84 | 1019.5 |
| 20260830134216 | 15 | 267 | 3.2 | 4.8 | 0.03 | 1.32 | 0.08 | 84 | 1019.6 |
| 20260830133215 | 15 | 272 | 6.4 | 9.7 | 0.03 | 1.32 | 0.08 | 83 | 1020.8 |
| 20260830132215 | 15 | 224 | 6.4 | 11.3 | 0.00 | 1.30 | 0.05 | 84 | 1021.0 |
| 20260830131215 | 15 | 265 | 3.2 | 4.8 | 0.00 | 1.30 | 0.05 | 85 | 1020.3 |
| 20260830130216 | 15 | 265 | 3.2 | 3.2 | 0.00 | 1.30 | 0.05 | 85 | 1020.3 |
| 20260830125235 | 15 | 0.0 | 0.0 | 0.00 | 1.30 | 0.05 | 85 | 1019.9 | |
| 20260830124216 | 15 | 63 | 1.6 | 3.2 | 0.00 | 1.30 | 0.05 | 84 | 1020.0 |
| 20260830123215 | 16 | 240 | 3.2 | 4.8 | 0.00 | 1.30 | 0.05 | 83 | 1020.5 |
| 20260830122216 | 16 | 238 | 8.0 | 14.5 | 0.00 | 1.30 | 0.05 | 82 | 1020.4 |
| 20260830121216 | 16 | 313 | 1.6 | 3.2 | 0.00 | 1.30 | 0.05 | 79 | 1020.2 |
| 20260830120215 | 17 | 312 | 4.8 | 6.4 | 0.00 | 1.30 | 0.05 | 77 | 1020.1 |
| 20260830115216 | 16 | 314 | 4.8 | 11.3 | 0.00 | 1.30 | 0.05 | 79 | 1019.9 |
| 20260830114215 | 16 | 360 | 4.8 | 6.4 | 0.00 | 1.30 | 0.05 | 84 | 1019.9 |
| 20260830113215 | 16 | 277 | 12.9 | 17.7 | 0.00 | 1.30 | 0.05 | 84 | 1019.6 |